Tracking 30061 objects as of 8-Dec-2024
HD Live streaming from Space Station
objects crossing your sky now

GLOBALSTAR M029

Track GLOBALSTAR M029 now!
10-day predictions
GLOBALSTAR M029 is classified as:


NORAD ID: 25963
Int'l Code: 1999-062C
Perigee: 1,685.8 km
Apogee: 1,691.2 km
Inclination: 52.0 °
Period: 120.0 minutes
Semi major axis: 8059 km
RCS: 2.8434 m2 (large)
Launch date: November 22, 1999
Source: Globalstar (GLOB)
Launch site: TYURATAM MISSILE AND SPACE COMPLEX (TTMTR)
Your satellite tracking list
Your tracking list is empty




NASA's NSSDC Master Catalog

Two Line Element Set (TLE):
1 25963U 99062C   24342.92468944 -.00000049  00000-0  45960-3 0  9993
2 25963  51.9801 252.7984 0003291  89.7200 350.3483 11.99888555146162
Source of the keplerian elements: AFSPC